Find Raduga

NORAD ID: 15946 Int'l Des: 1985-070 Owner: GUKOS Country: SU operational
HEOCIRCULARGSO

实时位置

正在加载3D地球...

关于 Raduga

正在加载描述...

即将过境

Passes for default location (London). Set your location on the main map for personalized predictions.

高度历史

Loading altitude history...

两行轨道根数

1 15946U 85070A 26106.76291677 .00000073 00000-0 00000+0 0 9994
2 15946 9.5219 317.2165 0002348 325.5548 24.5284 1.00273713121606
Epoch: Apr 16, 2026 • Age: 8 hours

当前状态

高度 35793.0 km
速度 3.07 km/s
星下点 8.86°N, 171.96°W
发射日期 Aug 8, 1985
运行时间 40.6 years
类型 other

技术详情

分类 Payload
质量 1965.00 kg
干质量 1800.00 kg
总质量 1965.00 kg
长度 5.50 m
直径 2.50 m
跨度 9.50 m
形状 Step Cyl + 2 Pan
制造商 NPOPM
平台类型 Raduga
阶段状态 In Orbit
所有者/国家 GUKOS/SU

Most Searched